Retour au catalogue

DELTA 1 DEB

ActifLEO
NORAD 7190·DEBRIS·🇺🇸 United States

Lancé Nov 6, 1973 depuis Vandenberg Space Force Base

Loading…

Prochains Passages (prochaines 24 heures)

TLE

FraisSource: Space-Track

Époque: Sep 13, 2026, 19:27 UTC

1 07190U 73086EY  26256.81067713  .00002443  00000-0  20548-2 0  9999
2 07190 102.7340 220.3842 0220822 111.0659 251.4244 13.78870171591927

Suivez DELTA 1 DEB en temps réel avec AllMySat

Download on the App Store